Погода в Константиновке

Украина / Запорожская область     46°48′57″N   35°24′56″E
темп.,
°C
ветер,
м/с
пор.,
м/с
влажн.,
%
обл.,
%
осадки,
мм/ч
давл.,
гПа
погр.,
м
14 августа, вс
вс1400:00+26ссв454548 0.0 100776
03:00+25всв41146100 0.1 1006361
06:00+24всв4115470 0.9 1006268
09:00+29вюв91337100 1.1 1006902
12:00+31вюв121428100 0.1 10061167
15:00+33вюв81124100 0.1 10061411
18:00+32юв452874 0.0 1005717
21:00+28ю113822 0.0 100411
15 августа, пн
пн1500:00+27сз2336100 0.0 100449
03:00+25с123918 0.0 100313
06:00+23всв34457 0.1 100360
09:00+30вюв55390 0.2 1004624
12:00+33юв553543 0.3 10051199
15:00+33ююв553779 0.4 10051434
18:00+32ююв544232 0.0 10041027
21:00+27зюз5863100 0.1 1005399
16 августа, вт
вт1600:00+25зсз4869100 0.3 1006408
03:00+22сз2576100 1.3 1007176
06:00+22сз14746 0.3 1008200
09:00+26юз22570 0.3 1009708
12:00+31ю33360 0.0 10091854
15:00+32ю64332 0.0 10091673
18:00+30ююв43350 0.0 10091007
21:00+25ю34660 0.0 101085
17 августа, ср
ср1700:00+24зюз22750 0.0 101017
03:00+23сз22770 0.0 100924
06:00+22с117515 0.0 100911
09:00+27зюз225443 0.0 1010602
12:00+32ююз3338100 0.0 10091819
15:00+33ююз5331100 0.0 10082112
18:00+31ю43333 0.0 1008693
21:00+25зсз47615 0.6 1009150
18 августа, чт
чт1800:00+23ссз23734 0.0 100867
03:00+22зсз22750 0.0 100831
06:00+22ссз22755 0.0 100835
09:00+28зсз22495 0.0 1008538
12:00+32юз3334100 0.0 10071722
15:00+34ююз643010 0.0 10062285
18:00+32юз7633100 0.1 1006997
21:00+25зсз246338 0.1 1007130